Glencoe, MN

3:36 AM CST on December 07, 2019 (GMT -0600)
Glencoe Municipal

Weather History for KGYL - October, 2019

Change the Weather History Date:

Thursday, October 31, 2019

  Actual Average (KHCD) Record (KHCD)
Temperature  
Mean Temperature 32 °F -  
Max Temperature 37 °F 51 °F 73 °F (1999)
Min Temperature 26 °F 33 °F 15 °F (1996)
Degree Days  
Heating Degree Days 34    
Moisture  
Dew Point 20 °F    
Average Humidity 65    
Maximum Humidity 75    
Minimum Humidity 50    
Precipitation  
Precipitation 0.00 in - - ()
Sea Level Pressure  
Sea Level Pressure 30.07 in    
Wind  
Wind Speed 5 mph (WNW)    
Max Wind Speed 9 mph    
Max Gust Speed -    
Visibility 10 miles    
Events      
Averages and records for this station are not official NWS values.
T = Trace of Precipitation, MM = Missing Value Source: NWS Daily Summary

Daily Weather History Graph

Daily Weather History Graph

Search for Another Location

Airport or City:

Astronomy

Oct. 31, 2019 Rise Set
Actual Time 7:52 AM CDT 6:06 PM CDT
Civil Twilight 7:22 AM CDT 6:36 PM CDT
Nautical Twilight 6:47 AM CDT 7:11 PM CDT
Astronomical Twilight 6:13 AM CDT 7:45 PM CDT
Moon 11:49 AM CDT (10/31) 8:56 PM CDT (10/31)
Length of Visible Light 11h 14m
Length of Day
10h 13m
Waxing Crescent, 16% of the Moon is Illuminated
Oct 31
Waxing Crescent
Nov 4
First Quarter
Nov 12
Full
Nov 19
Last Quarter
Nov 26
New

Hourly Weather History & Observations

Time (CDT) Temp. Windchill Dew Point Humidity Pressure Visibility Wind Dir Wind Speed Gust Speed Precip Events Conditions
12:15 AM 27.3 °F 23.4 °F 19.9 °F 74% 30.18 in 10.0 mi NNW 3.5 mph - N/A   Overcast
12:16 AM 27.5 °F 23.6 °F 19.8 °F 73% 30.18 in 10.0 mi NNW 3.5 mph - N/A   Overcast
12:38 AM 27.7 °F - 20.1 °F 73% 30.18 in 10.0 mi Calm Calm - N/A   Overcast
12:55 AM 27.9 °F 24.0 °F 19.9 °F 72% 30.17 in 10.0 mi WNW 3.5 mph - N/A   Overcast
12:56 AM 27.9 °F 24.0 °F 20.1 °F 73% 30.17 in 10.0 mi WNW 3.5 mph - N/A   Overcast
1:15 AM 27.7 °F 23.8 °F 20.5 °F 74% 30.17 in 10.0 mi NW 3.5 mph - N/A   Overcast
1:19 AM 27.9 °F 24.0 °F 20.8 °F 75% 30.17 in 10.0 mi NW 3.5 mph - N/A   Overcast
1:36 AM 28.0 °F 21.7 °F 18.5 °F 67% 30.17 in 10.0 mi North 5.8 mph - N/A   Overcast
1:55 AM 28.0 °F 21.7 °F 17.8 °F 65% 30.16 in 10.0 mi NW 5.8 mph - N/A   Overcast
1:56 AM 28.0 °F 22.8 °F 17.8 °F 65% 30.16 in 10.0 mi WNW 4.6 mph - N/A   Overcast
2:19 AM 28.0 °F 21.7 °F 18.7 °F 68% 30.15 in 10.0 mi NW 5.8 mph - N/A   Overcast
2:36 AM 28.2 °F 22.0 °F 18.1 °F 66% 30.15 in 10.0 mi NNW 5.8 mph - N/A   Overcast
2:55 AM 28.0 °F 24.2 °F 18.5 °F 67% 30.15 in 10.0 mi NW 3.5 mph - N/A   Overcast
2:56 AM 28.0 °F 22.8 °F 18.7 °F 68% 30.15 in 10.0 mi NW 4.6 mph - N/A   Overcast
3:18 AM 28.0 °F 21.7 °F 18.9 °F 68% 30.14 in 10.0 mi NNW 5.8 mph - N/A   Overcast
3:35 AM 27.9 °F 19.8 °F 18.5 °F 68% 30.14 in 10.0 mi NNW 8.1 mph - N/A   Overcast
3:55 AM 27.9 °F 22.6 °F 18.5 °F 68% 30.14 in 10.0 mi NNW 4.6 mph - N/A   Overcast
4:15 AM 27.5 °F 23.6 °F 18.5 °F 69% 30.14 in 10.0 mi North 3.5 mph - N/A   Overcast
4:37 AM 27.5 °F 22.2 °F 17.8 °F 67% 30.13 in 10.0 mi NW 4.6 mph - N/A   Overcast
4:55 AM 27.5 °F 22.2 °F 18.3 °F 68% 30.13 in 10.0 mi NW 4.6 mph - N/A   Overcast
4:56 AM 27.5 °F 21.1 °F 18.3 °F 68% 30.13 in 10.0 mi NW 5.8 mph - N/A   Overcast
5:19 AM 27.1 °F 20.7 °F 17.6 °F 67% 30.13 in 10.0 mi NW 5.8 mph - N/A   Overcast
5:35 AM 27.1 °F 20.7 °F 17.4 °F 67% 30.13 in 10.0 mi WNW 5.8 mph - N/A   Overcast
5:55 AM 27.0 °F 21.6 °F 18.1 °F 69% 30.13 in 10.0 mi North 4.6 mph - N/A   Overcast
5:56 AM 27.0 °F 21.6 °F 18.1 °F 69% 30.13 in 10.0 mi North 4.6 mph - N/A   Overcast
6:15 AM 26.6 °F 20.0 °F 17.6 °F 69% 30.13 in 10.0 mi North 5.8 mph - N/A   Overcast
6:20 AM 26.6 °F 21.2 °F 17.8 °F 69% 30.13 in 10.0 mi North 4.6 mph - N/A   Overcast
6:38 AM 26.6 °F 21.2 °F 17.6 °F 69% 30.13 in 10.0 mi North 4.6 mph - N/A   Overcast
6:55 AM 26.4 °F 18.9 °F 17.6 °F 69% 30.12 in 10.0 mi North 6.9 mph - N/A   Overcast
7:15 AM 26.2 °F 20.7 °F 17.2 °F 69% 30.12 in 10.0 mi North 4.6 mph - N/A   Overcast
7:35 AM 26.2 °F 18.6 °F 17.6 °F 70% 30.12 in 10.0 mi North 6.9 mph - N/A   Overcast
7:40 AM 26.2 °F 20.7 °F 17.6 °F 70% 30.12 in 10.0 mi North 4.6 mph - N/A   Overcast
7:57 AM 26.1 °F 19.4 °F 17.4 °F 70% 30.12 in 10.0 mi North 5.8 mph - N/A   Overcast
8:15 AM 26.2 °F 19.6 °F 17.4 °F 69% 30.12 in 10.0 mi NNW 5.8 mph - N/A   Overcast
8:16 AM 26.2 °F 20.7 °F 17.4 °F 69% 30.12 in 10.0 mi NNW 4.6 mph - N/A   Overcast
8:35 AM 26.4 °F 18.9 °F 17.6 °F 69% 30.13 in 10.0 mi NNW 6.9 mph - N/A   Overcast
8:36 AM 26.4 °F 18.0 °F 17.6 °F 69% 30.13 in 10.0 mi NNW 8.1 mph - N/A   Overcast
8:59 AM 26.2 °F 20.7 °F 17.4 °F 69% 30.12 in 10.0 mi NNW 4.6 mph - N/A   Overcast
9:16 AM 26.4 °F 19.8 °F 17.4 °F 69% 30.12 in 10.0 mi NNW 5.8 mph - N/A   Overcast
9:35 AM 26.6 °F 20.0 °F 17.4 °F 68% 30.12 in 10.0 mi NNW 5.8 mph - N/A   Overcast
9:59 AM 26.6 °F 19.1 °F 17.6 °F 69% 30.12 in 10.0 mi NNW 6.9 mph - N/A   Overcast
10:26 AM - - - N/A% 30.11 in 10.0 mi NW 6.9 mph - N/A   Mostly Cloudy
11:59 AM 30.2 °F 23.4 °F 19.4 °F 64% 30.10 in 10.0 mi NW 6.9 mph - N/A   Clear
12:52 PM 32.0 °F 27.5 °F 19.0 °F 59% 30.07 in 7.0 mi WSW 4.6 mph - N/A   Clear
12:55 PM 32.0 °F 24.8 °F 19.2 °F 59% 30.07 in 7.0 mi West 8.1 mph - N/A   Clear
12:56 PM 32.0 °F 25.6 °F 19.0 °F 59% 30.07 in 7.0 mi West 6.9 mph - N/A   Clear
1:43 PM 33.3 °F 28.9 °F 19.8 °F 58% 30.05 in 10.0 mi WSW 4.6 mph - N/A   Clear
1:59 PM 33.8 °F 27.0 °F 19.4 °F 56% 30.04 in 10.0 mi NW 8.1 mph - N/A   Clear
2:59 PM 35.6 °F 30.7 °F 21.2 °F 56% 30.03 in 7.0 mi WNW 5.8 mph - N/A   Clear
3:18 PM - - - N/A% 30.02 in 7.0 mi West 8.1 mph - N/A   Clear
3:35 PM 37.0 °F 30.4 °F 20.3 °F 51% 30.02 in 10.0 mi West 9.2 mph - N/A   Clear
3:36 PM 36.9 °F 31.4 °F 20.1 °F 51% 30.02 in 10.0 mi West 6.9 mph - N/A   Clear
3:55 PM 37.2 °F 32.6 °F 20.3 °F 50% 30.02 in 10.0 mi WSW 5.8 mph - N/A   Clear
4:00 PM 37.4 °F 31.4 °F 20.8 °F 51% 30.02 in 7.0 mi West 8.1 mph - N/A   Clear
4:17 PM 37.4 °F 32.1 °F 21.0 °F 52% 30.02 in 10.0 mi West 6.9 mph - N/A   Clear
4:35 PM 37.4 °F 32.1 °F 21.2 °F 52% 30.02 in 10.0 mi WSW 6.9 mph - N/A   Clear
4:55 PM 37.0 °F 31.6 °F 20.3 °F 51% 30.02 in 10.0 mi West 6.9 mph - N/A   Clear
5:00 PM 37.0 °F 31.0 °F 20.1 °F 50% 30.01 in 7.0 mi West 8.1 mph - N/A   Clear
5:17 PM 36.9 °F 31.4 °F 20.3 °F 51% 30.01 in 7.0 mi SW 6.9 mph - N/A   Clear
5:35 PM 36.5 °F 31.8 °F 20.7 °F 53% 30.00 in 7.0 mi SW 5.8 mph - N/A   Clear
5:55 PM 35.2 °F - 21.2 °F 57% 30.00 in 7.0 mi Calm Calm - N/A   Clear
5:56 PM 35.2 °F - 21.2 °F 57% 30.00 in 7.0 mi Calm Calm - N/A   Clear
6:17 PM 34.5 °F - 21.4 °F 59% 30.01 in 10.0 mi Calm Calm - N/A   Clear
6:35 PM 33.1 °F - 21.4 °F 62% 30.00 in 10.0 mi Calm Calm - N/A   Clear
6:36 PM 33.1 °F - 21.4 °F 62% 30.00 in 10.0 mi Calm Calm - N/A   Clear
6:55 PM 31.8 °F 27.3 °F 21.4 °F 65% 30.01 in 10.0 mi South 4.6 mph - N/A   Clear
6:59 PM 31.8 °F - 21.2 °F 65% 30.01 in 10.0 mi Calm Calm - N/A   Clear
7:16 PM 32.0 °F 27.5 °F 21.2 °F 64% 30.00 in 10.0 mi South 4.6 mph - N/A   Clear
7:35 PM 32.2 °F 28.9 °F 21.2 °F 64% 30.00 in 7.0 mi South 3.5 mph - N/A   Clear
7:36 PM 32.2 °F 28.9 °F 21.2 °F 64% 30.00 in 7.0 mi South 3.5 mph - N/A   Clear
7:58 PM 32.0 °F 27.5 °F 21.2 °F 64% 30.00 in 10.0 mi South 4.6 mph - N/A   Clear
8:16 PM 32.0 °F 28.7 °F 21.2 °F 64% 30.00 in 10.0 mi South 3.5 mph - N/A   Clear
8:35 PM 32.0 °F 27.5 °F 21.2 °F 64% 30.00 in 10.0 mi South 4.6 mph - N/A   Clear
8:36 PM 32.0 °F 27.5 °F 21.2 °F 64% 30.00 in 10.0 mi South 4.6 mph - N/A   Clear
8:58 PM 31.3 °F 26.6 °F 21.2 °F 66% 30.00 in 10.0 mi South 4.6 mph - N/A   Clear
9:15 PM 31.3 °F 26.6 °F 21.4 °F 67% 30.00 in 10.0 mi South 4.6 mph - N/A   Clear
9:35 PM 31.1 °F 26.4 °F 21.6 °F 68% 30.00 in 10.0 mi South 4.6 mph - N/A   Clear
9:40 PM 30.6 °F 27.1 °F 21.7 °F 70% 30.00 in 10.0 mi South 3.5 mph - N/A   Clear
9:57 PM 30.4 °F 26.9 °F 21.9 °F 71% 29.99 in 10.0 mi South 3.5 mph - N/A   Scattered Clouds
10:16 PM 31.1 °F 27.7 °F 21.7 °F 68% 29.99 in 10.0 mi South 3.5 mph - N/A   Mostly Cloudy
10:35 PM 31.5 °F 28.1 °F 22.1 °F 68% 29.98 in 10.0 mi SSW 3.5 mph - N/A   Overcast
10:58 PM 32.0 °F 27.5 °F 21.7 °F 66% 29.98 in 10.0 mi SSW 4.6 mph - N/A   Overcast
11:15 PM 32.2 °F 27.7 °F 21.6 °F 65% 29.97 in 10.0 mi South 4.6 mph - N/A   Overcast
11:16 PM 32.2 °F 27.7 °F 21.4 °F 64% 29.97 in 10.0 mi South 4.6 mph - N/A   Overcast
11:35 PM 32.9 °F 27.5 °F 20.8 °F 61% 29.97 in 10.0 mi South 5.8 mph - N/A   Overcast
11:39 PM 32.9 °F 27.5 °F 20.7 °F 61% 29.97 in 10.0 mi South 5.8 mph - N/A   Overcast
11:55 PM 33.1 °F 27.7 °F 20.3 °F 59% 29.97 in 10.0 mi South 5.8 mph - N/A   Overcast